Theta_e
352 353 354 354 353 353 353 354 353 354 353 353 353 350 350 352 351 351 352 353 353 351 351 351 350 348 348 350 350 350 351 351 351 350 350 350 351 351 350 349 347 345 346 345 347 349 348 346 347 347 346 345 344 343 342 342 344 345 345 345 345 344 343 343 342 343 343 344 343 343 344 344 343 342 341 341 340 340 340 340 339 340 340 340 341
352 353 354 355 354 354 354 354 353 354 354 353 353 350 351 354 352 352 353 354 353 351 350 350 347 345 345 347 349 350 351 351 350 350 350 350 351 351 350 350 347 346 346 345 346 349 349 348 347 348 348 347 345 345 344 344 344 344 346 347 345 345 345 345 344 344 342 342 342 342 342 343 342 341 341 341 341 340 339 339 339 339 339 339 340
353 355 355 356 357 355 353 353 353 354 354 354 354 352 353 354 353 354 355 355 353 351 350 348 346 344 342 343 345 347 348 350 350 349 349 349 349 350 350 349 347 346 346 346 345 347 348 349 349 350 350 349 348 348 346 346 345 345 347 348 345 345 345 345 345 345 344 342 341 341 341 341 341 341 340 340 340 340 339 339 338 339 339 339 340
356 357 356 357 358 356 354 353 354 355 355 355 354 354 355 354 354 355 354 353 351 349 348 346 344 341 338 339 341 344 345 347 349 349 349 348 349 351 351 350 349 347 346 345 346 346 346 348 349 350 351 350 350 350 349 349 348 348 348 347 346 345 343 342 343 344 345 344 343 342 342 340 340 340 340 339 339 339 339 339 339 339 339 339 339
357 356 357 357 357 356 356 355 354 354 355 355 355 355 356 355 354 353 352 350 349 347 345 343 341 338 335 336 337 339 342 345 346 348 350 349 348 350 351 351 351 349 347 346 346 346 346 346 347 348 349 350 349 349 350 350 349 348 347 347 346 344 344 344 343 342 343 344 344 344 343 342 341 340 340 339 339 338 338 338 339 340 340 340 339
355 352 354 356 357 357 357 356 354 355 355 355 355 355 355 354 353 352 350 348 347 344 341 339 338 336 337 337 336 336 338 340 343 345 347 349 349 348 350 352 351 350 349 347 346 346 346 346 346 346 348 348 349 349 350 349 348 347 347 348 347 345 346 346 345 343 343 343 343 343 343 343 343 342 341 340 340 339 338 338 338 338 339 340 340
357 352 353 357 358 357 357 355 354 355 355 353 354 355 353 352 352 350 348 347 344 340 337 336 336 338 339 340 339 338 337 337 340 342 345 348 349 349 350 351 351 351 351 350 348 346 346 346 346 346 346 348 349 350 350 348 346 347 348 349 348 347 347 347 346 345 344 344 344 343 343 344 344 343 343 342 342 341 340 339 338 338 338 338 339
357 354 353 358 359 356 356 354 354 356 353 349 352 353 351 350 349 348 347 346 341 336 334 335 337 341 340 339 340 339 339 338 338 340 344 346 348 349 350 350 350 350 350 351 350 349 347 347 347 346 346 349 349 349 350 347 344 346 348 348 348 347 347 346 346 346 345 345 344 344 343 343 344 344 344 344 343 343 342 341 340 339 338 338 338
355 354 352 357 360 357 356 356 355 355 349 347 349 348 347 347 347 347 346 342 338 336 338 341 343 343 341 340 341 340 341 341 339 340 342 344 347 348 349 350 350 350 350 349 350 351 350 348 347 347 348 349 349 349 349 348 346 346 346 347 347 347 347 347 346 346 346 345 345 345 344 343 342 343 344 345 345 345 344 343 342 341 340 339 338
353 354 354 357 360 357 356 357 355 351 347 347 347 345 345 345 346 345 342 340 341 342 343 344 344 343 343 342 342 343 343 343 342 342 342 342 345 347 348 350 349 349 349 349 350 350 349 349 348 348 349 348 347 348 348 349 348 347 346 346 346 346 347 347 347 347 346 346 346 346 345 345 343 343 343 344 345 346 346 345 344 343 343 342 340
351 353 357 359 359 357 357 356 352 349 347 345 343 343 346 346 344 340 340 343 344 344 344 344 344 344 344 343 343 344 345 344 344 343 342 342 344 347 347 348 349 348 348 349 349 347 347 348 347 348 347 346 346 346 347 347 347 346 345 346 346 346 346 347 347 347 346 347 347 347 346 345 345 344 344 344 344 345 345 346 345 345 344 344 343
352 353 358 359 357 356 355 352 349 348 346 344 342 344 345 342 339 338 341 345 345 344 344 344 344 344 344 343 344 345 346 345 344 343 342 342 344 346 346 346 347 347 346 347 347 347 347 347 346 346 346 346 347 346 346 346 346 346 345 346 346 346 347 348 348 347 347 347 348 347 346 346 346 346 345 345 344 344 344 344 344 345 345 344 344
356 356 358 358 356 353 352 349 348 347 345 345 344 343 341 336 336 340 343 345 345 344 343 342 344 346 346 344 344 344 346 345 343 342 341 342 343 343 344 344 344 344 344 344 345 346 347 346 345 345 345 346 348 346 346 346 345 345 345 346 346 346 347 347 347 347 347 347 347 347 347 346 346 345 346 346 346 345 345 344 344 344 344 344 344
361 360 359 358 355 353 351 348 347 347 346 345 344 342 341 338 340 343 345 344 343 342 341 340 344 346 344 347 348 345 344 344 342 340 339 340 340 340 340 340 340 340 341 341 342 343 345 345 344 345 344 345 346 345 344 345 345 344 344 344 345 345 345 346 346 346 346 346 346 347 347 347 347 346 346 346 346 346 345 345 345 345 345 345 344
362 362 358 356 355 353 351 349 347 348 346 344 343 342 343 343 342 343 343 343 343 342 342 341 344 345 344 351 354 350 350 348 342 339 338 338 338 338 338 337 338 339 339 340 341 342 343 344 343 343 344 344 344 344 344 345 345 344 342 342 343 343 344 345 346 346 346 346 346 347 347 347 347 346 346 346 346 346 346 346 345 345 345 345 345
362 362 359 355 354 352 351 349 348 348 347 342 340 341 342 341 342 344 343 343 343 342 342 342 344 345 347 351 350 350 354 352 343 338 338 338 337 336 335 335 335 336 338 338 339 341 341 341 342 342 342 343 343 342 343 344 343 340 335 332 334 335 336 339 342 344 345 346 346 346 347 347 347 347 347 346 346 346 346 346 346 346 345 345 345
360 360 358 355 354 352 350 349 348 348 345 339 338 341 342 341 341 343 343 343 343 341 341 341 341 343 345 347 348 350 351 348 345 344 338 337 337 335 334 333 332 333 336 334 334 338 339 338 339 339 339 339 341 340 340 341 339 331 323 320 322 323 324 327 331 335 339 342 344 345 346 346 346 347 347 347 347 347 347 347 347 346 346 346 346
358 358 356 354 353 352 350 349 348 348 343 339 341 341 340 341 340 341 343 344 342 341 342 340 340 342 342 342 345 346 347 345 350 353 344 337 336 334 332 332 331 332 334 333 333 335 336 336 335 335 335 335 337 336 336 337 330 320 317 318 318 318 318 319 321 323 327 331 335 338 341 343 345 345 346 346 346 347 347 347 347 347 347 347 347
358 356 355 353 353 351 349 348 347 347 342 341 343 339 336 340 341 342 344 343 342 343 343 340 342 342 339 339 340 341 343 343 347 353 351 345 339 335 333 332 331 331 330 331 332 332 332 334 334 333 332 332 333 333 333 333 327 319 316 317 316 317 317 317 318 318 319 320 322 325 328 332 336 339 342 344 345 345 346 346 347 347 347 347 347
357 356 354 353 352 350 348 347 346 346 342 341 343 340 340 342 342 344 344 342 343 344 342 341 342 341 337 339 340 339 340 340 341 345 350 352 347 340 335 331 331 330 329 329 329 328 328 330 332 331 331 331 331 332 332 332 330 324 319 317 317 316 316 316 317 317 318 318 319 319 320 321 323 325 329 332 336 339 343 344 346 346 346 347 346
356 354 354 352 351 348 346 346 345 344 342 341 342 342 343 343 343 345 344 342 343 343 340 339 339 341 340 338 338 339 339 338 338 338 343 349 349 346 339 333 333 331 329 329 328 328 328 327 327 327 330 332 331 332 332 332 332 330 325 323 322 318 316 316 316 316 317 317 318 319 320 320 319 319 320 321 323 326 331 336 340 343 345 346 346
356 354 353 351 348 346 345 346 344 343 341 340 342 343 342 343 344 344 344 344 343 341 340 340 339 339 339 337 337 340 340 340 340 336 339 345 345 342 337 336 340 335 330 331 329 328 329 328 327 327 329 331 331 331 332 332 333 332 330 330 328 324 320 318 316 316 316 317 317 318 319 320 321 321 321 321 320 320 322 324 327 332 336 340 343
356 354 352 350 347 345 346 346 343 343 342 340 343 343 340 340 343 343 344 344 343 342 342 341 338 338 338 337 337 339 340 340 339 336 337 342 343 341 336 334 337 334 331 332 330 330 329 328 328 328 329 329 329 330 331 332 332 332 332 332 331 329 325 321 317 317 317 317 317 317 318 319 319 320 320 320 321 321 321 322 322 323 325 328 332
356 353 351 349 347 345 346 346 344 343 343 343 344 344 340 339 342 343 344 344 343 344 343 341 339 338 338 338 336 337 337 337 338 337 337 339 340 341 339 336 338 336 333 333 332 332 331 329 329 329 329 330 330 331 332 331 332 332 333 332 331 331 329 325 321 317 316 317 317 318 318 318 318 319 319 318 318 319 319 320 321 322 323 323 324
354 352 351 348 347 346 345 346 344 343 344 344 344 343 341 341 341 341 343 344 344 343 343 341 340 339 339 339 338 337 337 337 337 337 338 337 337 339 339 337 338 337 334 333 332 332 332 330 330 330 330 330 330 331 331 332 333 333 333 332 332 331 329 328 326 322 319 318 317 317 318 318 318 318 318 318 318 317 317 318 318 319 320 322 323
351 350 351 348 346 347 345 344 344 344 345 345 344 343 342 341 341 341 342 343 343 343 343 341 340 340 339 340 339 337 337 338 338 337 337 337 337 338 339 338 338 336 336 335 334 333 333 331 330 329 330 330 330 331 331 332 333 333 333 333 332 331 329 329 331 330 328 324 320 318 317 317 318 318 318 318 318 318 317 317 317 317 318 319 320
350 349 350 348 347 347 345 344 344 345 345 345 345 343 342 341 341 340 341 342 342 343 343 342 341 341 340 340 340 339 338 337 338 337 337 337 336 336 338 340 341 339 339 338 336 335 335 332 330 329 331 331 330 331 331 331 332 332 333 333 332 332 331 332 333 332 331 330 328 324 320 318 317 317 317 317 318 318 317 317 317 317 317 317 317
351 349 349 348 348 347 346 344 344 345 345 345 345 344 342 341 341 341 341 341 341 342 342 342 341 341 341 340 340 340 339 338 337 338 337 336 337 337 337 339 341 342 342 340 339 336 334 333 333 331 330 331 331 332 332 332 332 333 333 333 333 333 333 334 334 333 332 331 331 329 327 324 320 318 317 317 317 318 318 317 316 316 317 317 317
351 350 349 348 348 348 346 344 344 345 346 345 344 343 342 341 341 341 341 340 340 341 342 342 342 341 340 340 340 340 340 339 338 338 338 338 337 338 338 337 339 342 342 342 341 338 335 334 333 332 331 330 331 331 332 333 333 334 335 334 334 334 334 334 334 334 333 332 331 330 330 329 325 320 317 317 317 318 319 319 318 317 316 317 317
352 351 350 349 348 348 347 345 344 345 346 345 344 342 342 342 341 341 341 341 340 341 341 342 341 341 340 339 340 340 339 340 339 339 339 339 339 339 339 338 338 340 341 342 341 338 336 335 333 333 332 331 332 332 332 333 333 334 335 335 334 334 334 335 335 334 333 332 332 331 330 328 326 324 322 320 319 320 321 320 320 318 317 316 316
353 352 351 350 348 348 347 346 345 345 346 345 344 343 342 342 342 342 342 341 341 341 341 341 341 340 340 339 339 339 340 340 340 339 339 339 339 340 340 339 338 338 339 340 341 339 336 335 334 333 333 332 332 332 333 333 334 334 334 334 334 334 334 334 333 333 333 332 332 331 331 330 329 329 328 326 325 325 325 323 322 321 319 317 316
354 352 351 350 348 347 347 346 346 346 346 345 344 343 343 343 342 342 342 341 341 341 341 341 340 339 339 339 339 339 340 340 340 340 339 338 339 340 341 340 339 339 338 339 341 340 337 336 335 334 333 333 332 332 332 333 333 334 333 333 333 333 333 333 332 332 332 332 331 331 331 331 330 330 330 328 328 328 328 327 325 323 321 319 317
355 353 352 351 349 347 346 346 346 346 346 346 344 344 344 344 343 342 341 341 341 341 341 340 340 339 339 339 339 339 339 340 340 340 340 339 339 339 340 340 339 339 338 339 340 339 338 336 335 334 334 334 333 332 332 332 333 333 333 333 333 332 332 332 331 331 330 330 330 331 330 330 330 330 329 329 328 328 328 327 326 324 322 321 319
355 353 352 351 349 348 346 345 346 346 346 346 345 345 345 343 342 342 341 340 341 340 340 340 339 339 339 338 339 340 339 339 339 339 339 339 339 339 339 338 338 337 337 337 337 338 337 336 335 335 334 334 334 333 333 332 332 332 332 332 331 331 331 331 330 329 329 329 329 329 329 329 329 329 328 328 328 327 328 327 326 325 323 322 321
356 354 352 351 350 349 346 345 345 345 345 345 345 345 344 343 343 342 340 340 340 341 340 340 340 339 339 339 339 340 339 339 339 339 339 339 339 339 338 337 337 336 335 335 335 336 336 336 335 335 335 334 334 333 333 333 332 331 331 331 330 330 330 330 329 328 328 328 328 328 328 328 328 328 327 327 327 327 328 328 328 327 325 323 322
356 354 352 351 350 349 347 345 345 344 344 345 344 344 344 343 343 342 340 340 341 341 340 340 340 340 339 340 340 340 340 340 339 339 339 338 338 338 339 338 337 336 336 335 335 335 335 336 335 335 335 334 334 334 333 333 332 331 331 330 329 329 329 329 329 329 329 328 328 327 327 327 327 327 327 327 327 328 328 328 327 327 326 325 324
357 355 353 352 350 349 347 346 345 344 344 344 344 343 343 343 343 342 340 339 340 340 340 340 340 340 340 340 340 340 340 340 339 339 339 339 338 339 339 338 338 337 337 336 336 335 335 335 335 334 334 334 333 334 334 333 333 332 331 331 330 329 329 329 329 329 329 328 328 328 328 327 327 328 328 328 328 328 328 328 327 327 327 326 326
358 357 354 352 350 348 346 346 345 344 344 344 344 343 343 343 342 341 340 339 340 340 340 340 340 340 340 341 341 341 340 340 340 340 340 339 339 339 339 339 338 338 337 336 336 335 335 335 335 334 333 333 333 333 333 333 332 332 332 332 331 330 330 330 330 329 329 328 328 329 329 328 328 328 328 328 328 328 328 328 327 327 327 327 327
360 357 355 353 350 347 345 346 346 344 342 343 344 342 342 343 342 341 341 340 340 340 340 340 340 341 341 341 341 341 341 341 340 339 340 340 340 340 339 339 339 338 337 336 336 336 336 335 335 334 334 333 333 333 332 332 332 332 332 332 332 331 331 331 330 330 330 329 329 329 330 330 329 329 329 329 329 329 328 329 328 328 328 327 327
360 358 356 353 350 347 345 345 345 343 341 343 344 343 342 342 341 341 341 340 340 339 339 340 341 341 341 341 341 340 340 340 339 339 339 339 340 340 339 338 339 338 337 337 337 337 336 336 336 335 334 334 334 333 333 332 332 332 332 332 332 332 331 331 331 330 330 329 329 330 330 330 330 330 329 329 329 329 329 329 329 329 328 327 327
359 357 355 352 349 347 345 344 343 342 341 343 345 343 342 342 342 342 342 342 341 339 340 340 341 341 341 341 340 339 338 338 338 338 338 338 339 339 338 338 338 339 338 337 337 336 336 337 336 335 334 334 334 333 333 332 332 332 331 331 331 331 331 331 330 330 330 330 329 330 329 329 330 330 329 329 329 329 329 329 328 328 328 328 327
358 357 354 351 349 347 345 344 343 342 342 342 343 343 341 341 342 343 343 342 341 340 340 341 341 341 341 340 339 338 337 337 336 335 336 336 336 336 336 337 337 338 338 337 337 336 336 337 336 335 335 334 333 332 332 332 331 330 330 330 331 331 331 331 331 330 330 330 329 330 329 329 329 329 329 329 329 329 328 327 327 327 327 327 326
358 357 354 351 349 346 345 344 342 343 343 342 343 341 339 339 341 342 342 341 341 340 341 341 341 342 341 339 339 338 337 336 335 335 335 334 334 334 334 334 334 336 337 337 336 336 336 336 335 335 335 334 333 332 331 331 330 329 329 329 330 331 331 332 332 331 331 330 330 330 330 329 329 329 328 328 328 327 326 326 326 326 327 326 326
359 357 352 349 348 346 345 345 344 343 344 343 343 341 339 339 339 340 341 341 340 340 341 341 341 342 341 341 340 339 338 337 336 336 336 335 335 335 335 335 335 335 334 334 334 333 333 333 334 333 333 333 333 332 332 332 331 330 330 330 330 331 332 332 332 332 331 330 330 330 330 329 328 328 327 327 326 326 327 327 327 326 326 326 326
360 357 352 349 347 345 345 346 345 343 344 343 342 340 339 340 340 341 341 340 340 340 341 341 341 341 341 340 340 339 339 338 337 337 336 336 336 336 336 336 336 336 336 334 333 331 330 330 331 332 333 333 332 332 332 332 330 330 330 331 331 331 331 331 331 331 331 330 329 329 329 328 327 327 327 327 326 327 327 327 326 326 326 325 325
359 356 351 348 346 346 346 346 345 344 344 343 342 340 338 338 339 340 341 340 340 340 339 338 338 339 339 339 339 339 339 339 338 337 337 337 337 336 336 337 337 337 337 336 334 333 332 332 332 333 332 332 332 333 333 332 331 331 332 332 331 331 330 330 330 329 329 328 328 328 328 327 326 327 328 327 326 326 325 325 325 325 325 324 324
358 355 350 346 345 346 347 345 344 345 345 344 342 339 336 335 335 337 338 339 339 337 335 335 336 337 337 338 338 339 339 339 339 338 338 338 338 338 338 338 338 338 337 335 335 336 337 336 336 334 332 332 331 331 331 332 332 331 331 331 330 330 329 329 328 328 327 326 326 327 328 328 327 327 327 326 325 324 324 324 324 323 323 322 322
357 354 350 347 346 346 346 345 345 346 346 344 341 339 337 334 333 332 331 334 336 335 335 335 334 335 336 337 338 339 339 340 340 340 340 339 339 339 339 338 338 338 337 336 335 337 337 336 336 335 333 332 332 331 331 331 330 328 326 326 325 326 326 327 327 327 327 326 326 326 327 327 325 325 325 324 323 323 323 322 321 321 321 320 319
357 353 351 349 348 346 346 347 347 346 347 344 337 335 335 332 329 329 329 331 334 336 337 335 333 335 337 337 336 337 337 338 340 340 340 341 341 339 338 338 338 337 337 336 335 335 335 334 334 333 331 331 332 331 330 329 329 327 325 324 324 325 326 326 327 326 326 326 325 324 325 325 324 324 323 323 322 321 321 320 319 319 318 318 317
358 354 352 350 349 348 347 347 347 346 347 342 333 331 333 330 328 331 332 333 335 337 337 336 336 338 338 337 336 336 337 338 339 341 341 341 341 340 338 338 337 337 336 335 334 334 334 333 332 331 331 330 330 330 329 328 327 326 325 324 325 326 327 327 326 326 325 325 324 323 324 325 323 321 321 320 319 319 318 318 318 318 317 316 316
358 355 353 352 350 349 348 348 347 346 344 340 335 333 332 328 327 333 337 336 336 337 338 339 339 337 336 336 333 332 335 339 339 340 340 340 340 338 336 335 335 335 335 334 334 334 333 332 331 330 330 329 329 329 329 327 327 327 327 326 325 326 327 326 326 325 325 325 323 322 322 322 320 318 318 318 318 318 318 318 318 317 317 316 317
Wind_Speed
9 7 7 6 4 4 3 4 4 4 4 2 3 4 4 4 4 5 5 7 8 6 5 6 6 6 3 2 3 4 4 4 5 3 2 4 5 6 5 3 3 3 4 6 8 10 10 10 10 12 14 15 16 17 16 15 14 13 12 11 10 9 9 8 8 8 8 9 9 9 9 9 8 8 8 8 8 8 8 7 6 6 5 5 5
7 7 7 6 5 5 4 5 5 5 5 3 4 5 3 4 6 6 6 7 8 6 6 6 6 6 3 1 0 3 5 5 4 4 3 5 6 7 6 4 3 4 5 5 6 8 9 9 9 10 11 12 14 16 17 16 15 14 12 11 10 9 9 8 8 9 9 10 10 10 10 10 10 9 9 9 9 9 9 9 8 7 6 6 6
5 7 6 4 5 5 5 6 4 4 4 3 5 6 4 5 6 6 6 6 6 6 5 5 7 6 4 2 1 2 4 4 4 4 4 4 4 7 7 5 4 4 5 5 5 7 8 9 9 10 10 10 11 13 15 16 15 13 10 9 10 9 9 10 11 12 12 12 12 12 12 12 11 11 11 10 10 10 10 10 10 9 9 8 8
5 6 5 5 5 5 5 5 5 4 4 3 5 6 5 4 5 5 6 5 5 5 5 6 8 7 6 5 4 2 2 2 4 3 3 3 3 7 7 5 5 4 5 5 5 6 7 8 9 10 10 10 11 11 12 12 11 10 8 9 12 13 14 15 15 15 15 14 14 13 14 13 13 13 12 12 12 11 11 11 11 11 10 10 10
8 7 6 6 5 6 5 6 6 4 4 4 4 5 5 3 3 4 4 4 4 5 4 6 7 8 8 8 7 4 3 2 2 2 3 3 2 6 6 5 5 5 5 6 6 7 6 7 7 9 10 10 10 10 9 8 7 8 11 13 16 17 16 16 15 15 15 15 15 15 15 15 15 15 14 14 13 13 13 13 12 12 11 11 11
10 9 8 7 6 6 7 8 6 3 4 5 3 4 4 3 3 4 3 4 5 5 6 6 7 7 7 6 6 5 5 4 1 1 3 3 1 3 4 5 6 4 4 5 6 7 6 6 6 7 9 9 9 8 6 6 8 11 12 14 15 16 17 16 15 15 15 16 17 17 17 16 16 15 15 15 15 14 14 14 14 13 13 12 12
9 9 7 7 6 6 7 8 5 2 5 4 1 2 2 2 3 3 3 5 6 6 7 6 6 6 3 3 4 3 4 5 3 2 2 2 2 1 3 4 4 3 4 4 4 5 6 7 7 7 8 8 7 6 4 6 9 11 11 12 13 15 16 16 15 16 16 16 17 18 18 17 17 16 16 16 16 15 15 15 15 14 14 14 13
9 9 7 6 6 6 6 5 3 1 2 1 2 1 1 2 4 4 3 5 6 7 6 5 5 5 4 5 5 1 2 4 4 3 1 2 2 1 2 3 3 3 4 4 4 4 4 5 7 8 8 7 6 6 5 6 8 9 9 11 12 14 15 14 15 16 16 17 18 18 19 18 18 18 17 16 16 16 16 16 15 15 15 15 14
8 9 7 6 6 5 4 3 2 1 1 3 2 2 2 3 4 4 3 5 7 7 6 6 7 8 5 8 7 6 5 5 5 4 3 2 1 1 2 2 2 3 2 3 3 4 4 4 5 6 6 7 6 6 6 6 6 7 9 10 11 13 14 13 14 15 17 17 16 17 18 19 19 19 19 18 17 17 17 17 16 16 16 15 15
8 8 7 6 5 4 3 4 2 1 2 2 1 1 2 2 3 4 5 6 6 7 9 10 9 7 5 7 7 7 5 6 7 6 5 4 3 3 2 1 2 2 3 2 1 3 3 2 2 3 4 5 5 5 6 6 6 7 9 9 9 11 12 12 12 14 16 15 13 14 16 18 19 20 21 20 19 18 18 17 17 17 17 16 16
8 8 8 6 5 3 3 4 2 2 2 2 1 2 3 3 4 5 5 4 4 5 7 7 6 6 7 6 6 5 4 5 6 5 4 4 4 4 2 2 2 2 3 4 2 1 2 2 2 1 2 2 2 2 3 4 4 6 8 9 8 9 10 9 10 12 14 14 13 13 14 16 17 18 20 21 21 21 20 20 19 19 18 18 17
8 8 8 6 5 3 3 4 2 2 2 1 2 3 3 3 3 4 4 4 4 4 2 3 6 6 6 5 2 2 2 3 3 3 2 2 4 5 4 3 4 5 6 6 5 4 4 4 5 4 3 3 2 1 0 1 0 2 6 7 7 7 8 7 7 9 11 12 12 13 14 15 15 16 17 19 20 21 22 22 21 20 20 19 19
10 9 8 6 5 5 4 4 3 4 3 2 1 2 3 3 2 3 2 3 4 3 1 3 6 6 6 5 3 3 1 0 2 1 1 4 3 3 4 3 5 5 6 7 6 5 6 7 8 7 6 5 3 3 2 2 3 3 2 4 5 6 6 6 7 8 9 10 11 11 13 14 14 15 16 17 18 19 20 20 21 21 20 20 20
12 11 9 6 6 7 6 5 4 4 3 2 1 2 3 2 1 3 2 2 3 3 4 4 6 7 4 1 4 4 1 2 3 1 3 4 2 3 4 4 5 6 5 5 6 6 7 9 8 7 8 6 5 6 4 4 4 3 3 3 3 3 3 4 5 6 8 9 9 10 11 12 13 13 15 16 17 18 18 19 19 20 20 20 20
11 11 9 8 8 8 7 6 5 4 3 3 2 2 1 0 1 3 2 3 3 1 4 4 6 9 5 1 1 2 1 4 4 1 4 3 4 5 5 4 5 6 5 5 6 6 7 8 7 7 7 7 7 8 7 5 5 4 3 2 1 1 1 2 2 3 5 6 8 9 10 11 12 12 13 14 15 16 17 17 18 19 20 20 21
10 9 9 9 9 9 8 7 6 4 3 3 2 2 1 2 1 1 3 5 5 2 5 5 5 6 4 2 3 1 1 2 1 3 1 1 7 6 4 6 5 4 4 5 6 5 6 7 7 7 8 7 8 9 9 7 6 5 5 4 3 2 2 2 3 4 5 5 6 7 9 9 10 11 12 12 13 13 14 15 16 18 20 21 22
10 9 9 10 10 9 8 7 6 5 3 3 3 3 3 3 3 1 2 5 6 2 6 5 5 5 3 2 2 1 1 4 3 1 3 3 7 6 5 4 3 4 3 4 6 5 5 8 7 7 8 8 9 9 8 7 5 4 5 5 4 4 3 3 3 5 6 7 8 8 9 9 9 9 10 12 13 13 14 15 15 16 18 20 21
11 10 10 10 11 10 9 7 6 6 4 3 3 4 4 4 3 2 1 2 5 3 4 3 3 3 2 2 3 3 2 6 5 0 3 5 6 4 5 5 3 5 4 4 8 6 5 7 7 7 7 7 7 7 6 5 4 4 6 6 6 6 5 4 3 4 6 8 9 9 10 10 10 10 11 11 12 12 13 14 16 17 18 19 20
11 11 11 11 11 11 9 6 6 7 5 5 5 6 6 4 2 3 2 1 2 5 2 1 2 3 2 2 4 4 2 3 3 1 2 3 2 2 6 8 7 6 5 6 8 6 5 5 5 7 8 7 6 5 4 3 2 4 5 5 5 6 7 6 5 4 4 7 8 9 9 10 11 11 12 13 13 13 13 14 15 16 18 19 20
12 12 11 12 12 11 9 7 6 6 6 7 6 5 4 3 2 3 2 2 1 4 4 2 1 3 3 3 4 3 2 2 2 1 1 2 1 3 5 6 7 8 7 7 5 4 4 4 4 4 5 4 5 3 1 1 0 3 4 4 4 5 6 7 7 6 5 5 6 8 8 9 10 11 11 12 13 14 15 15 16 16 17 17 19
12 13 13 13 13 10 9 8 7 7 7 7 7 5 3 4 3 2 3 3 2 1 3 4 4 4 4 3 3 2 1 1 2 2 1 0 1 2 3 2 4 6 5 4 6 4 3 4 2 2 3 4 5 3 2 1 3 4 5 6 7 6 6 7 8 8 6 5 5 6 6 7 8 9 10 10 11 12 14 15 17 17 18 18 18
13 13 13 13 12 10 10 10 9 8 9 8 8 8 6 5 5 4 4 4 3 3 2 2 1 3 3 2 2 3 3 2 3 2 0 1 1 4 4 1 3 4 3 3 6 2 1 2 1 5 3 3 2 1 1 1 4 6 8 9 9 9 8 8 8 8 8 7 5 4 5 5 6 7 7 8 9 10 11 13 15 16 18 19 19
14 14 14 13 12 11 11 11 11 10 10 9 6 8 8 8 8 6 5 5 4 4 2 1 1 1 2 1 3 4 4 4 4 3 2 2 2 4 6 4 2 3 2 1 2 3 5 3 3 5 6 6 4 3 4 4 5 9 12 11 10 11 11 9 8 8 8 8 7 5 4 4 4 5 6 6 7 8 9 10 12 14 16 17 19
15 16 15 14 14 14 13 13 13 12 12 10 8 8 10 11 11 8 7 6 5 5 5 4 3 3 4 4 4 3 3 3 5 5 2 3 4 4 8 6 1 2 1 3 3 3 5 6 6 8 10 7 6 6 6 8 9 10 11 10 11 13 14 12 10 9 8 7 7 6 5 4 4 5 6 7 7 8 8 9 10 12 13 15 17
17 17 16 16 17 17 15 14 14 14 14 12 11 10 9 10 13 10 8 8 7 6 6 6 6 6 6 5 4 4 3 2 3 5 2 1 1 3 7 7 4 4 4 5 6 6 8 9 9 12 13 10 9 9 8 9 8 9 10 10 10 13 15 14 11 10 9 9 9 8 7 6 6 6 8 8 9 9 10 10 10 11 12 14 15
19 18 17 17 19 19 17 16 15 15 15 13 13 12 10 9 11 10 9 9 8 7 7 7 7 8 7 5 4 5 4 1 2 5 4 4 3 3 4 5 6 8 7 6 8 8 8 10 10 10 12 14 11 9 9 7 8 10 11 11 14 17 17 14 12 12 12 12 11 11 10 10 9 10 10 10 10 11 11 11 11 12 12 13 14
20 20 18 18 20 20 18 17 16 16 16 15 14 14 13 11 10 10 10 10 9 9 9 8 8 9 9 7 6 6 5 4 5 6 5 4 5 4 3 3 4 6 6 5 7 8 10 11 10 8 7 10 11 10 10 10 10 12 13 15 17 17 14 13 14 15 14 14 14 14 14 13 13 13 13 12 12 11 11 11 12 12 13 14 14
21 21 20 19 20 20 20 18 18 18 17 17 16 15 15 14 12 12 11 11 11 11 10 10 10 10 9 9 9 7 7 6 6 7 6 5 6 6 5 4 3 3 3 3 3 7 10 10 9 8 6 6 8 9 10 12 12 13 15 16 16 13 11 13 15 15 15 15 15 15 16 16 17 17 16 15 14 13 12 12 12 12 13 14 15
22 22 22 21 20 21 21 20 20 19 19 19 18 16 16 15 14 14 13 12 12 12 11 10 10 11 10 10 10 9 8 7 7 7 7 7 8 8 8 8 6 3 2 3 3 5 8 8 7 7 7 7 9 9 11 12 13 13 14 15 15 14 14 15 15 15 15 16 17 18 20 20 20 19 19 18 18 16 15 13 13 13 13 14 14
22 23 23 23 23 23 23 22 21 21 21 21 20 18 17 17 16 15 15 13 12 12 12 11 11 11 10 10 10 10 9 9 8 9 9 9 10 10 10 10 9 7 5 3 4 7 10 10 8 6 6 7 9 9 11 12 12 13 14 15 15 15 15 16 17 18 18 18 18 18 19 19 18 18 18 18 19 18 17 16 15 15 15 14 14
23 24 25 25 25 24 24 23 22 22 22 22 22 21 19 18 18 17 17 15 13 12 12 12 12 11 11 11 10 10 9 9 9 10 10 10 10 11 11 11 11 11 10 6 4 6 10 11 10 9 8 10 11 11 12 13 13 14 15 15 15 15 16 18 18 19 18 16 16 16 16 17 17 17 17 17 17 18 19 20 19 19 18 17 15
25 26 26 26 27 27 25 23 22 23 23 23 23 22 21 19 19 18 18 17 15 13 13 12 12 12 13 12 11 11 10 10 11 11 11 11 11 11 11 12 12 11 12 10 6 7 11 12 13 13 11 11 12 12 12 13 13 15 16 16 16 16 17 18 18 17 16 17 18 18 17 16 16 17 18 18 19 21 23 24 24 23 22 20 19
27 28 29 28 28 28 26 24 23 24 24 24 24 23 22 21 20 19 18 18 17 16 14 14 13 13 12 11 11 11 11 11 11 11 11 11 11 12 12 12 12 12 12 13 10 9 11 12 13 13 12 12 13 13 13 13 14 15 16 15 15 16 17 18 18 17 17 18 18 17 16 16 18 19 20 21 22 23 24 24 24 24 24 23 22
29 30 30 30 29 29 28 26 25 25 25 25 25 24 24 23 22 20 19 19 19 17 16 15 14 13 12 12 12 12 12 12 12 11 12 12 12 13 13 12 13 13 13 13 12 10 10 12 12 13 12 12 12 13 12 13 14 15 14 14 15 17 17 16 17 18 18 17 17 18 19 20 22 23 23 23 23 23 22 22 22 22 23 23 24
30 31 31 31 31 30 29 27 26 26 27 27 26 25 26 25 24 22 20 19 19 18 17 16 15 14 13 13 13 13 13 12 12 12 12 13 13 13 13 13 14 14 13 13 13 11 12 13 12 12 12 11 12 13 13 14 15 15 15 16 17 16 15 16 18 19 20 20 20 21 22 22 23 24 24 25 24 23 23 22 22 22 22 22 23
31 32 32 32 32 31 29 28 28 27 28 29 28 27 27 27 26 24 22 21 20 19 18 17 17 16 15 15 15 14 14 13 13 13 13 14 14 14 14 14 15 15 14 14 14 13 13 14 14 13 13 13 15 15 14 15 16 16 17 18 18 18 19 20 20 21 21 21 21 22 23 23 22 23 24 25 24 24 24 24 25 24 23 22 22
31 33 33 31 31 32 31 31 31 30 29 30 30 28 28 28 27 25 23 22 21 20 19 18 17 17 17 17 17 15 15 15 15 15 15 15 15 15 15 15 15 15 15 15 15 15 15 15 16 16 15 15 16 16 15 16 16 16 17 18 18 18 19 20 20 21 23 23 23 23 23 21 21 23 23 23 23 23 25 26 26 27 27 27 25
30 32 34 33 32 34 34 33 33 33 30 31 32 30 28 28 28 27 25 24 22 21 20 19 17 17 17 17 16 16 16 16 16 16 16 15 16 16 16 15 15 15 16 16 16 15 16 16 17 17 17 16 17 17 16 15 16 16 16 17 18 18 18 20 21 22 23 23 23 23 22 22 24 25 25 25 25 26 28 28 28 29 30 31 31
29 29 32 35 35 35 36 33 32 34 33 31 32 31 29 29 28 27 25 25 23 21 20 19 18 18 18 17 17 18 18 18 18 18 17 17 17 17 17 16 17 17 17 17 17 16 16 16 17 17 17 16 16 17 16 15 15 16 17 17 18 20 21 21 22 22 21 22 23 24 24 25 26 26 27 28 28 28 29 28 28 29 30 30 31
29 28 30 35 37 36 36 35 32 33 34 32 31 32 31 29 29 27 26 26 24 22 21 20 19 18 18 18 18 19 19 19 20 20 19 18 17 17 17 17 18 18 17 17 16 16 15 15 15 15 16 16 17 17 17 17 16 16 16 17 18 20 20 19 19 20 21 23 23 24 24 25 25 26 26 27 27 28 28 28 29 29 29 29 30
31 31 29 32 37 37 36 35 34 34 35 33 32 33 32 30 30 30 28 27 25 23 22 20 19 18 18 17 18 18 19 19 20 21 21 20 19 19 18 17 17 18 17 17 17 16 15 14 14 14 14 15 17 17 18 17 16 16 16 16 18 19 19 19 19 20 21 22 23 24 25 25 25 25 26 27 28 28 28 29 30 30 30 30 31
32 32 32 31 35 37 36 36 35 34 34 34 34 35 35 33 32 30 28 27 24 22 21 20 18 17 17 17 17 17 18 18 19 19 20 21 21 22 21 20 19 17 16 16 17 17 16 15 15 15 14 15 17 17 17 17 16 16 16 16 17 17 16 17 18 20 20 21 23 24 24 23 23 25 26 27 28 28 30 31 31 30 31 31 32
32 32 34 33 33 35 36 36 35 34 33 34 35 36 36 35 32 29 26 25 24 22 21 19 17 16 16 16 17 17 17 17 18 18 20 21 22 23 23 24 23 22 21 19 19 18 17 16 16 16 15 16 18 18 18 18 16 15 15 15 16 16 15 14 15 16 17 18 20 23 23 23 24 26 28 29 30 32 33 33 31 30 30 31 32
32 31 32 33 32 32 33 34 34 34 33 33 35 36 35 35 32 29 26 25 23 21 20 19 17 16 16 16 16 16 16 16 16 16 18 19 20 21 22 23 24 25 25 26 25 23 21 19 18 18 19 19 19 19 18 17 15 14 14 15 15 16 16 16 16 17 17 17 19 22 25 25 26 29 31 31 31 31 31 30 29 28 29 30 32
28 28 29 31 31 31 31 31 32 32 31 33 34 34 34 34 33 29 26 24 22 20 19 18 16 16 16 17 17 17 16 15 14 15 16 16 16 18 19 20 22 24 25 27 27 27 26 25 23 23 23 22 21 20 18 17 16 15 15 16 17 18 19 19 19 19 20 20 21 24 27 28 28 29 30 29 28 28 28 28 28 28 29 30 32
24 25 26 29 30 30 29 29 30 29 30 32 33 32 33 35 33 28 23 20 19 18 17 16 16 15 15 15 16 17 16 15 15 16 16 16 16 17 18 19 21 23 25 26 27 27 28 28 28 28 27 24 21 19 17 16 17 17 16 17 18 19 21 21 22 24 26 27 27 26 26 27 28 27 27 27 28 28 28 28 28 28 28 28 29
25 26 27 27 27 28 27 27 28 27 28 31 31 31 32 33 31 28 24 20 18 17 18 17 16 15 15 15 17 17 17 16 16 16 17 17 17 17 18 20 21 21 22 24 25 25 26 26 26 27 27 26 25 23 21 19 19 17 16 17 18 20 23 24 25 26 28 28 27 24 23 25 26 25 25 26 27 28 28 27 26 26 26 27 29
24 26 26 25 26 26 25 25 26 24 25 29 30 29 29 28 26 26 25 22 19 18 19 18 17 17 17 17 18 18 18 19 18 18 18 18 18 17 17 19 20 19 21 23 23 23 25 25 23 24 25 24 24 24 23 21 19 19 18 19 20 20 21 21 21 22 23 22 21 22 23 24 25 24 26 27 27 27 27 26 26 27 27 29 31
21 24 25 25 25 26 24 24 24 21 23 26 27 25 26 25 23 24 24 22 20 17 15 15 16 16 13 13 15 17 19 20 19 18 18 18 18 17 16 16 16 17 20 20 20 19 19 19 19 21 22 22 23 23 22 20 20 21 20 19 20 19 18 15 14 17 19 18 19 23 24 25 26 26 26 25 23 23 23 24 26 27 28 30 32
19 22 25 24 24 25 24 24 23 22 23 25 25 26 27 24 22 24 23 20 17 14 12 12 14 13 12 13 14 18 22 23 21 21 20 18 18 18 17 15 14 15 16 15 14 13 11 11 13 16 18 20 22 23 22 21 21 21 21 22 22 19 16 14 14 16 18 19 23 26 24 23 23 21 21 21 21 22 23 24 26 28 29 31 32
18 20 23 23 23 23 23 21 20 21 23 25 26 27 25 20 19 22 22 18 14 12 13 13 13 13 14 13 12 17 24 26 24 23 21 20 20 18 16 14 12 12 12 10 8 7 7 10 12 14 15 16 18 19 19 20 20 20 23 25 24 21 18 17 19 16 12 15 22 22 18 16 17 18 19 18 15 18 23 24 25 28 31 33 34
Wind_Direction
209 206 205 201 207 209 217 251 246 242 266 291 272 294 321 331 330 314 330 328 316 329 339 340 325 296 273 245 296 304 295 285 278 276 213 215 223 212 204 219 233 214 216 223 218 209 212 219 218 219 222 224 223 223 222 218 214 209 208 212 213 215 219 219 219 221 222 225 226 226 227 226 224 225 228 231 231 235 239 244 243 238 242 246 252
208 201 199 202 215 216 220 247 248 254 272 273 271 302 332 309 306 312 330 319 314 343 349 332 316 302 293 213 351 333 310 294 287 290 249 208 211 214 207 214 227 213 213 224 221 209 211 222 227 228 227 226 226 226 226 224 220 216 212 215 219 219 223 227 229 227 226 227 229 230 230 230 230 229 231 234 236 239 242 247 252 251 251 255 258
214 196 201 214 224 235 243 251 257 252 257 248 260 285 290 287 302 308 315 317 332 346 336 325 307 310 337 343 335 331 321 307 303 306 270 246 221 211 210 214 215 212 213 219 224 218 215 220 226 233 236 234 232 231 230 229 227 225 220 222 230 232 228 225 224 224 225 226 226 227 228 230 233 233 233 233 236 240 242 244 248 253 254 256 259
215 192 204 222 227 252 257 255 256 250 259 256 264 287 293 292 298 299 314 340 346 330 323 320 311 327 348 338 337 335 349 339 321 320 294 300 247 211 215 219 213 211 216 220 224 226 226 224 222 226 235 240 239 239 239 237 235 238 235 228 228 229 225 220 217 217 219 222 226 229 231 231 232 234 235 235 235 238 241 244 244 247 251 255 258
219 211 217 226 240 251 246 252 254 256 281 280 294 314 311 303 313 323 346 351 320 314 322 318 326 344 338 332 342 337 333 343 335 334 320 325 232 211 218 223 222 214 211 218 224 228 233 234 232 228 230 238 243 244 247 251 246 242 238 230 229 229 228 227 224 222 221 220 224 228 232 234 235 235 236 237 237 238 239 242 244 245 247 251 255
224 227 227 228 243 244 245 266 261 253 279 278 318 340 328 344 1 6 3 325 314 329 331 332 338 329 318 328 331 321 318 313 318 338 318 320 277 221 216 221 231 228 215 218 220 228 236 240 243 241 239 240 246 246 242 248 243 237 235 234 236 235 234 235 233 231 228 225 227 227 228 232 236 239 241 242 243 243 243 244 246 247 247 248 251
225 234 234 228 237 246 258 267 248 253 285 282 355 353 337 30 37 23 4 341 342 342 330 326 314 304 316 327 295 288 311 308 306 303 283 303 312 256 229 225 226 217 221 239 232 227 238 246 250 253 255 251 252 254 228 227 239 238 236 238 242 242 240 240 238 236 232 231 233 233 231 231 234 239 241 245 247 248 249 249 250 250 250 250 250
227 234 232 226 234 249 259 248 215 269 326 31 39 336 333 62 52 26 11 356 340 322 316 308 307 338 5 312 297 347 0 325 306 298 296 288 284 282 277 251 242 231 228 258 260 243 248 252 256 260 261 258 256 255 238 233 242 243 242 241 245 246 243 241 242 244 243 240 238 238 237 235 235 238 240 243 246 249 251 253 254 253 254 253 252
223 233 232 227 232 243 240 189 168 227 46 51 35 5 4 39 41 21 4 349 328 315 326 345 357 14 351 312 336 20 17 348 332 342 358 335 295 307 301 256 269 297 292 282 251 253 276 259 254 264 266 268 265 262 258 255 254 253 250 248 248 248 246 246 245 247 251 250 246 244 243 239 237 237 240 242 244 247 250 252 254 255 256 256 255
216 226 234 231 228 226 192 161 150 116 69 37 14 40 31 34 20 3 350 341 332 329 342 354 0 358 311 312 353 9 358 346 350 5 359 351 11 358 333 308 310 317 329 354 177 233 296 290 252 266 280 287 283 277 270 267 265 253 250 251 253 255 253 252 248 246 250 254 253 251 248 245 243 241 242 244 245 246 248 250 253 255 255 256 257
217 216 227 226 214 210 168 152 142 91 61 0 7 60 67 52 8 346 341 346 339 328 335 342 337 321 304 322 355 359 356 345 349 2 348 348 359 359 5 0 11 22 20 42 73 42 24 30 24 337 312 332 315 286 273 276 270 246 245 248 252 261 261 256 253 251 253 257 258 257 252 249 248 248 247 246 246 247 248 251 252 254 255 256 258
223 214 217 210 185 180 152 146 154 144 111 33 50 47 30 13 348 337 345 350 318 289 294 325 315 303 288 291 342 15 5 358 4 353 337 26 19 14 25 22 36 41 35 43 40 45 76 63 46 61 51 45 97 131 352 342 11 228 240 243 247 260 268 267 259 256 256 257 257 255 252 251 250 251 251 249 249 249 250 252 254 255 256 257 259
214 207 205 200 173 165 164 156 159 165 146 93 71 13 356 342 331 332 333 327 308 293 356 336 310 291 262 236 152 103 6 42 64 330 169 98 64 42 50 44 47 48 38 41 48 69 78 57 50 60 61 67 95 89 65 86 101 106 165 215 239 253 264 271 269 266 264 264 262 258 255 255 255 253 253 252 251 251 251 253 254 255 256 256 258
200 194 193 190 168 161 163 159 162 178 168 128 93 31 11 0 316 300 282 288 308 335 7 353 328 326 312 246 131 117 354 264 244 282 99 96 92 93 79 69 53 45 39 46 63 75 65 57 55 46 45 58 69 75 85 102 103 97 112 155 204 229 257 269 278 280 275 274 271 267 265 262 261 258 257 256 254 254 253 253 254 255 255 255 256
195 185 183 179 166 161 162 164 165 169 165 143 106 61 28 313 275 297 296 280 261 282 28 25 358 350 353 3 124 135 9 283 261 73 90 114 104 81 55 63 69 51 44 58 63 65 66 68 68 57 55 61 67 80 94 103 95 77 65 69 107 142 268 265 280 286 277 276 269 264 263 261 263 262 261 260 257 257 257 256 256 256 257 256 254
196 182 178 174 169 166 166 170 169 165 157 141 146 164 188 221 231 294 295 293 282 154 86 45 27 13 4 307 293 199 106 301 290 79 24 145 106 95 55 55 72 72 55 61 67 75 83 78 76 78 76 75 75 78 83 95 90 53 37 30 14 12 347 298 285 280 270 272 269 265 262 259 259 260 261 262 259 259 260 260 259 257 256 256 255
196 186 174 170 170 168 169 171 171 169 157 148 179 195 200 203 200 230 269 307 325 87 104 52 35 46 31 356 337 14 39 334 342 70 329 11 85 98 95 72 69 104 88 74 84 87 82 77 80 85 85 90 91 86 87 95 89 44 35 36 23 14 5 337 306 292 282 277 276 277 275 271 265 260 259 261 260 260 260 260 259 257 255 255 257
193 184 174 174 171 168 170 172 176 175 167 161 190 209 202 200 188 176 222 305 333 1 94 70 39 64 56 63 67 59 9 330 331 52 339 10 56 85 125 136 116 113 124 114 104 97 87 84 88 91 93 99 98 98 104 103 93 75 60 49 35 26 22 17 354 313 295 289 285 283 281 279 275 270 267 266 266 264 262 260 259 257 256 257 259
186 180 180 180 171 168 171 174 180 179 175 174 192 206 198 198 166 150 184 216 316 327 341 115 118 116 97 63 75 66 44 350 349 47 333 358 61 194 182 154 133 130 129 115 104 88 90 97 99 107 105 101 105 107 102 88 68 67 61 49 33 20 16 17 15 0 324 306 300 294 288 283 279 276 273 272 272 271 269 266 263 261 260 260 261
182 180 180 179 172 169 173 177 182 180 176 179 195 209 182 165 147 146 189 214 232 315 319 346 48 114 99 50 63 55 27 31 26 61 347 326 272 237 206 156 148 148 123 110 106 72 89 112 91 113 125 107 116 133 113 122 11 4 16 14 3 350 348 355 358 2 359 334 317 309 301 293 287 282 279 276 275 273 272 271 269 268 267 265 265
181 182 181 178 173 169 174 180 185 184 181 185 195 199 171 163 171 166 188 202 189 228 306 341 11 56 61 48 57 41 296 262 249 221 158 21 328 282 245 192 149 123 91 93 112 87 105 130 71 300 199 133 115 123 120 198 271 308 335 342 339 332 324 327 333 338 346 349 337 323 315 308 300 293 289 284 280 276 273 271 271 271 271 270 270
181 183 181 178 174 172 178 184 187 190 194 200 195 183 180 184 187 193 190 199 205 195 260 326 40 33 21 23 342 308 285 257 247 244 162 86 274 278 291 324 101 88 60 82 103 75 293 138 25 312 231 159 102 107 196 267 288 294 305 316 324 328 324 315 316 322 327 338 346 342 332 324 320 315 308 301 292 285 280 275 273 272 271 271 271
179 179 177 179 180 179 184 189 191 192 198 205 192 173 185 190 186 191 189 197 216 210 242 285 142 309 302 256 285 305 316 329 348 9 31 22 336 297 322 349 59 75 72 64 23 323 290 273 279 286 261 247 267 254 228 249 286 292 291 297 311 319 322 317 308 308 312 321 331 341 348 347 345 342 335 326 315 303 295 287 281 276 273 272 271
180 178 177 180 184 184 186 191 192 192 197 199 191 188 197 189 180 187 194 198 210 208 216 222 201 219 239 236 243 266 287 308 337 353 35 38 13 321 319 329 7 44 122 232 271 262 264 271 252 258 265 251 230 224 245 268 285 291 284 286 303 308 312 312 301 293 296 304 314 323 333 346 355 353 348 341 332 322 312 302 294 286 279 276 274
182 179 180 184 186 188 189 191 192 192 195 196 191 197 204 182 172 181 194 199 202 207 217 218 209 221 246 251 238 254 262 231 281 306 325 9 299 272 309 333 344 321 278 240 249 248 249 251 246 254 256 239 226 237 257 274 281 282 277 278 295 302 304 304 294 286 287 291 296 303 310 318 328 335 338 337 334 329 322 315 307 299 292 285 281
183 182 184 186 187 189 191 192 194 193 194 195 191 196 202 183 170 179 192 198 200 206 218 223 219 229 250 259 249 260 268 218 233 263 281 288 263 259 316 337 322 300 287 259 252 257 254 246 246 248 235 228 234 239 241 253 266 275 279 279 288 297 300 297 290 286 286 288 289 289 293 298 305 312 318 321 325 326 323 320 315 310 304 298 291
186 187 188 187 186 189 192 193 196 195 193 194 191 193 197 190 181 185 193 202 204 206 216 226 232 231 235 240 243 248 244 230 232 236 240 253 264 285 306 322 309 296 292 265 241 254 266 259 253 247 230 230 237 237 241 248 256 266 276 281 287 296 299 296 293 288 284 287 290 289 288 289 293 298 303 308 312 317 319 318 317 315 311 307 302
189 189 189 189 187 188 191 193 195 195 193 193 192 192 194 193 191 190 194 202 205 208 214 224 233 233 230 230 232 239 239 230 233 236 230 225 240 257 253 242 266 289 297 287 251 263 272 271 265 257 254 256 247 245 255 259 261 267 273 281 290 296 296 294 294 291 286 286 288 287 285 286 288 288 290 294 300 305 310 310 311 313 312 309 306
189 189 188 189 190 190 192 194 194 194 194 194 194 195 196 196 196 194 196 200 204 207 212 220 231 233 231 230 227 231 239 237 234 237 237 232 234 238 235 237 245 252 285 287 276 283 282 287 291 260 245 264 269 266 271 273 275 277 275 278 283 284 285 286 286 286 284 282 283 284 284 286 287 285 282 284 288 294 300 301 301 302 305 306 305
188 188 188 188 191 193 193 193 194 194 193 193 194 196 198 199 199 199 199 202 204 205 208 217 229 233 233 231 228 227 231 234 233 233 233 232 232 233 233 236 240 240 250 268 275 283 284 289 293 263 245 278 289 280 277 278 280 281 280 280 281 281 282 282 282 282 282 284 287 289 289 289 289 287 285 283 284 287 292 295 293 291 292 295 298
190 188 187 188 191 194 195 196 195 194 193 193 194 195 197 198 200 201 200 202 205 203 205 215 224 232 234 231 231 231 230 232 234 235 235 234 233 234 235 237 237 238 244 255 267 269 274 284 288 281 276 286 286 276 271 272 274 276 276 277 277 277 278 279 283 285 287 291 294 293 293 292 292 292 290 288 286 288 291 293 293 289 284 283 287
192 189 187 189 192 195 197 196 196 196 195 195 195 196 197 198 202 205 202 200 202 202 206 213 221 229 230 229 231 233 233 235 238 239 240 240 239 239 239 238 237 237 242 245 251 263 269 276 283 284 283 282 281 277 271 271 273 275 274 273 275 280 283 284 286 287 291 294 291 288 288 290 291 289 287 286 287 290 294 295 294 291 284 278 276
193 191 190 192 194 196 196 196 197 196 195 196 196 197 197 198 201 207 206 201 199 202 207 213 221 227 227 225 230 233 235 237 238 240 243 245 244 243 242 240 238 240 240 239 243 260 269 272 276 278 278 278 279 276 272 269 270 273 271 270 278 289 290 286 283 284 287 289 288 288 289 289 290 288 286 287 288 291 295 296 294 290 285 278 273
193 192 192 193 195 196 196 196 197 196 195 195 195 196 196 198 201 206 208 204 199 199 204 213 221 225 228 229 232 235 237 240 241 243 246 247 246 245 244 242 242 243 244 244 247 258 271 274 276 279 278 275 274 276 274 271 272 274 269 267 281 293 292 284 281 283 284 285 286 289 290 289 288 287 286 287 288 291 294 295 293 290 286 281 275
194 194 195 195 196 195 196 197 197 196 196 195 195 195 196 198 200 204 207 206 201 197 200 211 219 222 227 230 233 237 239 241 244 246 248 251 251 249 248 249 250 249 250 250 252 260 272 277 278 280 281 278 275 277 279 276 276 277 274 275 284 289 287 281 281 282 282 282 281 283 287 288 286 286 287 287 287 289 291 292 291 291 289 285 280
195 196 197 197 196 194 194 196 196 197 197 196 195 195 197 199 200 202 204 205 203 200 201 209 217 221 225 229 234 237 239 241 245 248 249 251 253 252 252 252 253 253 253 253 256 260 267 274 276 275 276 278 278 278 276 276 275 274 275 277 278 277 278 279 279 280 281 283 283 285 288 288 287 287 288 287 286 287 289 290 289 289 288 287 285
195 196 197 197 195 193 193 195 196 197 197 196 195 195 196 199 200 201 202 204 205 205 205 210 218 222 225 228 232 236 237 239 243 246 248 250 251 251 251 251 250 252 252 251 254 256 257 264 272 276 278 279 279 278 275 271 268 269 274 276 274 273 276 278 276 275 276 278 280 285 289 289 288 289 288 286 285 285 286 287 287 287 287 286 285
195 194 196 196 195 194 195 197 196 196 195 197 198 197 196 198 200 200 201 202 204 205 207 211 219 225 227 230 233 237 239 241 242 244 247 249 250 248 248 249 249 250 250 249 251 253 253 258 268 276 279 279 279 279 276 270 265 265 269 273 274 273 274 277 277 276 277 277 275 279 285 284 284 285 285 284 282 281 282 282 282 284 285 285 283
193 192 194 196 197 196 196 197 196 196 196 197 200 200 197 197 199 200 201 204 204 206 210 213 219 226 230 232 236 239 239 241 243 245 248 249 251 250 249 249 249 248 249 250 251 252 253 256 261 267 274 279 279 278 279 277 271 267 266 267 269 271 272 273 274 275 278 278 276 276 278 279 281 282 282 281 280 280 280 279 279 281 282 281 280
194 195 196 195 196 197 197 197 197 198 198 198 200 200 198 197 197 198 201 204 205 208 213 216 220 225 229 233 237 239 240 241 243 244 245 246 248 251 251 251 249 247 246 248 250 251 254 257 259 264 272 278 278 278 281 278 270 268 267 262 260 266 270 270 271 275 278 278 278 278 278 279 280 280 280 279 278 279 278 278 278 279 278 277 277
197 200 198 194 195 196 196 196 197 198 199 199 199 199 197 196 196 197 199 202 204 208 213 216 220 225 231 234 237 241 241 243 245 245 244 243 243 247 250 250 249 247 245 246 248 251 254 257 260 265 271 273 273 275 275 271 267 270 274 269 265 268 272 273 274 277 279 280 278 277 278 279 278 278 278 277 277 277 278 279 279 279 278 278 278
199 200 198 194 194 195 195 196 197 198 199 200 200 200 199 197 196 196 198 199 201 207 213 218 222 227 234 237 240 243 243 244 248 250 249 247 247 249 251 252 251 248 245 246 248 249 251 254 258 262 262 263 265 268 269 271 274 277 279 278 277 279 282 282 281 281 281 280 279 276 275 276 277 277 276 275 276 277 279 280 280 279 279 279 279
199 199 196 195 195 195 196 196 197 198 199 200 201 202 202 200 197 196 197 199 201 207 213 218 223 229 236 241 244 246 247 248 252 255 255 254 253 254 257 258 258 255 252 252 253 252 251 252 255 255 254 257 261 263 267 271 274 277 280 284 286 289 290 287 284 285 284 281 279 279 278 277 277 278 278 278 279 280 281 281 280 279 278 276 276
199 198 195 195 195 195 196 196 196 198 199 201 201 201 202 202 199 197 198 199 201 206 213 219 225 231 236 241 246 248 250 251 254 258 259 256 255 256 258 262 264 264 262 260 259 256 254 255 258 257 257 260 262 262 262 265 269 274 281 284 285 286 285 281 278 280 284 284 283 282 281 280 281 280 280 281 283 283 282 282 281 279 276 276 276
199 199 197 196 195 197 197 196 197 198 201 202 200 199 201 201 199 197 197 198 201 205 211 217 223 230 235 239 243 247 249 251 254 260 263 261 259 260 261 263 265 267 267 266 263 260 258 258 259 260 260 262 264 263 261 262 267 272 276 277 278 279 279 276 276 279 283 284 284 284 282 282 282 280 279 282 285 284 282 281 280 277 276 277 278
197 200 200 199 198 199 198 197 198 199 202 202 198 199 204 203 201 199 196 196 201 206 212 219 225 232 238 242 245 248 250 253 254 258 261 263 263 263 263 262 263 265 268 269 268 266 263 262 262 263 262 264 268 269 266 268 271 273 274 274 275 276 277 276 279 282 283 283 282 281 280 281 282 278 275 281 285 284 283 283 281 280 281 283 283
198 201 204 203 203 201 199 199 199 198 202 200 195 199 204 203 202 203 201 203 210 215 223 228 231 237 245 251 254 254 254 256 258 260 263 264 263 262 257 256 260 264 266 269 270 267 265 266 267 267 267 268 269 268 268 272 274 274 275 275 274 276 278 279 281 281 281 282 281 274 271 277 280 276 274 280 283 283 283 284 284 285 286 288 288
197 200 205 207 207 204 201 200 197 196 200 197 193 197 199 196 199 205 207 211 215 221 227 227 228 236 246 254 260 263 261 260 261 264 265 264 262 259 255 256 264 269 271 276 276 269 267 268 266 267 271 273 267 264 267 271 271 274 281 282 280 279 277 276 276 275 277 282 280 272 272 280 284 279 277 280 281 281 283 286 288 290 291 291 291
195 196 200 204 207 205 202 199 193 192 196 191 187 192 194 191 194 202 206 208 211 219 226 222 224 235 250 261 270 278 277 272 268 266 266 265 263 263 263 265 268 271 275 283 286 279 272 268 264 267 272 270 263 263 270 271 269 275 282 279 276 275 274 272 272 275 278 281 283 282 279 281 283 281 280 284 286 287 291 293 294 295 295 293 292
194 195 197 200 203 203 201 198 192 189 189 185 181 185 188 188 192 199 203 202 204 217 225 220 220 230 243 252 266 278 278 272 268 264 263 264 264 265 266 265 266 270 275 283 289 286 275 265 269 274 272 266 262 263 265 265 266 271 271 268 268 268 267 268 274 281 283 284 288 287 278 276 287 296 301 306 303 298 296 297 297 298 296 294 292
198 197 197 198 198 197 196 194 190 185 182 180 179 181 185 189 193 198 201 195 191 208 218 216 219 228 237 248 264 272 269 266 264 263 263 264 266 267 266 261 262 268 272 274 278 283 275 269 278 284 279 273 269 265 264 266 267 266 263 264 265 261 258 264 270 275 282 283 285 288 287 293 306 313 315 314 306 298 298 297 297 297 295 293 292